When you browse on this site, cookies collect data to enhance your experience and personalize the content and advertising you see.
Visit our Privacy Policy to learn more. By continuing to use the site, you agree to this use of cookies and data.
  • In Czech Republic
  • List of Countries
  • For 7 days
  • Water Temperature
  • Weather Map
  • Weather Widgets
  • user-avatar
    Login

    Hourly Weather Malanje

    Today, 6 December, Friday

    Time Temperature Precipitation Wind Pressure Humidity
    00:00 +20°C° 0.2 mm 1 mps 665 mmHg 96%
    01:00 +18°C° 0.2 mm 0 mps 664 mmHg 97%
    02:00 +18°C° 0.3 mm 0 mps 664 mmHg 96%
    03:00 +18°C° 0.3 mm 0 mps 664 mmHg 96%
    04:00 +18°C° 0.3 mm 0 mps 664 mmHg 96%
    05:00 +18°C° 0 mm 0 mps 664 mmHg 96%
    06:00 +19°C° 0 mm 0 mps 665 mmHg 95%
    07:00 +19°C° 0 mm 0 mps 665 mmHg 95%
    08:00 +20°C° 0.7 mm 0 mps 666 mmHg 92%
    09:00 +22°C° 0.7 mm 0 mps 666 mmHg 89%
    10:00 +25°C° 0.7 mm 1 mps 666 mmHg 86%
    11:00 +25°C° 1.4 mm 1 mps 666 mmHg 86%
    12:00 +24°C° 1.4 mm 1 mps 665 mmHg 87%
    13:00 +24°C° 1.4 mm 1 mps 664 mmHg 88%
    14:00 +24°C° 1 mm 2 mps 664 mmHg 89%
    15:00 +24°C° 1 mm 2 mps 663 mmHg 89%
    16:00 +24°C° 1 mm 2 mps 663 mmHg 90%
    17:00 +23°C° 0.4 mm 2 mps 663 mmHg 92%
    18:00 +21°C° 0.4 mm 2 mps 663 mmHg 95%
    19:00 +20°C° 0.4 mm 2 mps 663 mmHg 97%
    20:00 +20°C° 0 mm 2 mps 664 mmHg 98%
    21:00 +19°C° 0 mm 2 mps 664 mmHg 98%
    22:00 +20°C° 0 mm 1 mps 664 mmHg 98%
    23:00 +19°C° 0 mm 2 mps 664 mmHg 98%

    Tomorrow, 7 December, Saturday

    Time Temperature Precipitation Wind Pressure Humidity
    00:00 +19°C° 0 mm 2 mps 664 mmHg 98%
    01:00 +19°C° 0 mm 2 mps 664 mmHg 99%
    02:00 +19°C° 0 mm 2 mps 664 mmHg 98%
    03:00 +19°C° 0 mm 2 mps 664 mmHg 98%
    04:00 +19°C° 0 mm 2 mps 664 mmHg 98%
    05:00 +19°C° 0 mm 2 mps 664 mmHg 97%
    06:00 +19°C° 0 mm 2 mps 664 mmHg 97%
    07:00 +19°C° 0 mm 2 mps 665 mmHg 97%
    08:00 +20°C° 0 mm 2 mps 665 mmHg 93%
    09:00 +21°C° 0 mm 2 mps 665 mmHg 90%
    10:00 +23°C° 0 mm 2 mps 665 mmHg 86%
    11:00 +24°C° 0 mm 2 mps 665 mmHg 79%
    12:00 +26°C° 0 mm 3 mps 664 mmHg 72%
    13:00 +27°C° 0 mm 3 mps 664 mmHg 65%
    14:00 +27°C° 0.3 mm 3 mps 664 mmHg 70%
    15:00 +26°C° 0.3 mm 3 mps 663 mmHg 76%
    16:00 +25°C° 0.3 mm 3 mps 662 mmHg 81%
    17:00 +24°C° 0.1 mm 3 mps 663 mmHg 85%
    18:00 +21°C° 0.1 mm 3 mps 663 mmHg 89%
    19:00 +20°C° 0.1 mm 2 mps 663 mmHg 93%
    20:00 +19°C° 0 mm 2 mps 664 mmHg 94%
    21:00 +19°C° 0 mm 2 mps 664 mmHg 95%
    22:00 +19°C° 0 mm 2 mps 664 mmHg 95%
    23:00 +19°C° 0 mm 3 mps 664 mmHg 96%

    Day after tomorrow, 8 December, Sunday

    Time Temperature Precipitation Wind Pressure Humidity
    00:00 +19°C° 0 mm 3 mps 664 mmHg 97%
    01:00 +19°C° 0 mm 3 mps 664 mmHg 97%
    02:00 +18°C° 0 mm 3 mps 664 mmHg 97%
    03:00 +18°C° 0 mm 3 mps 664 mmHg 97%
    04:00 +18°C° 0 mm 2 mps 664 mmHg 97%
    05:00 +18°C° 0 mm 3 mps 664 mmHg 96%
    06:00 +18°C° 0 mm 3 mps 664 mmHg 94%
    07:00 +19°C° 0 mm 3 mps 665 mmHg 93%
    08:00 +20°C° 0 mm 3 mps 665 mmHg 86%
    09:00 +23°C° 0 mm 2 mps 665 mmHg 79%
    10:00 +24°C° 0 mm 2 mps 665 mmHg 73%
    11:00 +25°C° 0 mm 2 mps 665 mmHg 68%
    12:00 +26°C° 0 mm 2 mps 665 mmHg 64%
    13:00 +28°C° 0 mm 2 mps 664 mmHg 60%
    14:00 +27°C° 0 mm 3 mps 664 mmHg 62%
    15:00 +27°C° 0 mm 3 mps 663 mmHg 64%
    16:00 +27°C° 0 mm 3 mps 663 mmHg 66%
    17:00 +25°C° 0 mm 3 mps 663 mmHg 71%
    18:00 +23°C° 0 mm 2 mps 663 mmHg 77%
    19:00 +20°C° 0 mm 2 mps 663 mmHg 83%
    20:00 +20°C° 0 mm 2 mps 663 mmHg 86%
    21:00 +20°C° 0 mm 1 mps 664 mmHg 90%
    22:00 +19°C° 0 mm 1 mps 664 mmHg 93%
    23:00 +19°C° 0 mm 1 mps 664 mmHg 95%

    9 December, Monday

    Time Temperature Precipitation Wind Pressure Humidity
    00:00 +18°C° 0 mm 1 mps 664 mmHg 97%
    01:00 +17°C° 0 mm 2 mps 663 mmHg 98%
    02:00 +17°C° 0 mm 2 mps 663 mmHg 97%
    03:00 +18°C° 0 mm 2 mps 663 mmHg 97%
    04:00 +18°C° 0 mm 2 mps 663 mmHg 96%
    05:00 +18°C° 0 mm 2 mps 664 mmHg 93%
    06:00 +18°C° 0 mm 2 mps 664 mmHg 91%
    07:00 +19°C° 0 mm 2 mps 665 mmHg 88%
    08:00 +20°C° 0 mm 2 mps 665 mmHg 80%
    09:00 +23°C° 0 mm 2 mps 665 mmHg 72%
    10:00 +25°C° 0 mm 2 mps 666 mmHg 64%
    11:00 +26°C° 0 mm 2 mps 665 mmHg 60%
    12:00 +27°C° 0 mm 2 mps 665 mmHg 55%
    13:00 +28°C° 0 mm 3 mps 664 mmHg 50%
    14:00 +28°C° 0 mm 3 mps 664 mmHg 54%
    15:00 +27°C° 0 mm 3 mps 663 mmHg 57%
    16:00 +27°C° 0 mm 3 mps 663 mmHg 60%
    17:00 +24°C° 0 mm 2 mps 663 mmHg 67%
    18:00 +21°C° 0 mm 2 mps 663 mmHg 73%
    19:00 +20°C° 0 mm 1 mps 662 mmHg 79%
    20:00 +19°C° 0 mm 1 mps 663 mmHg 80%
    21:00 +19°C° 0 mm 1 mps 663 mmHg 82%
    22:00 +17°C° 0 mm 2 mps 664 mmHg 83%
    23:00 +16°C° 0 mm 2 mps 664 mmHg 83%

    10 December, Tuesday

    Time Temperature Precipitation Wind Pressure Humidity
    00:00 +16°C° 0 mm 2 mps 664 mmHg 84%
    01:00 +15°C° 0 mm 2 mps 664 mmHg 84%
    02:00 +15°C° 0 mm 1 mps 663 mmHg 89%
    03:00 +15°C° 0 mm 1 mps 663 mmHg 93%
    04:00 +14°C° 0 mm 1 mps 663 mmHg 98%
    05:00 +15°C° 0 mm 1 mps 663 mmHg 96%
    06:00 +16°C° 0 mm 2 mps 664 mmHg 95%
    07:00 +17°C° 0 mm 2 mps 664 mmHg 93%
    08:00 +19°C° 0 mm 2 mps 665 mmHg 83%
    09:00 +21°C° 0 mm 2 mps 665 mmHg 73%
    10:00 +25°C° 0 mm 2 mps 666 mmHg 62%
    11:00 +26°C° 0 mm 2 mps 665 mmHg 57%
    12:00 +27°C° 0 mm 2 mps 665 mmHg 51%
    13:00 +29°C° 0 mm 2 mps 665 mmHg 46%
    14:00 +28°C° 0 mm 2 mps 664 mmHg 50%
    15:00 +28°C° 0 mm 2 mps 664 mmHg 54%
    16:00 +28°C° 0 mm 2 mps 663 mmHg 59%
    17:00 +25°C° 0 mm 2 mps 663 mmHg 66%
    18:00 +23°C° 0 mm 2 mps 663 mmHg 74%
    19:00 +21°C° 0 mm 1 mps 663 mmHg 81%
    20:00 +20°C° 0 mm 1 mps 663 mmHg 84%
    21:00 +19°C° 0 mm 1 mps 663 mmHg 87%
    22:00 +18°C° 0 mm 1 mps 664 mmHg 90%
    23:00 +18°C° 0 mm 1 mps 664 mmHg 91%

    11 December, Wednesday

    Time Temperature Precipitation Wind Pressure Humidity
    00:00 +18°C° 0 mm 1 mps 664 mmHg 92%
    01:00 +16°C° 0 mm 1 mps 664 mmHg 93%
    02:00 +16°C° 0 mm 1 mps 663 mmHg 95%
    03:00 +16°C° 0 mm 1 mps 663 mmHg 97%
    04:00 +15°C° 0 mm 2 mps 663 mmHg 98%
    05:00 +16°C° 0 mm 2 mps 663 mmHg 97%
    06:00 +17°C° 0 mm 2 mps 664 mmHg 95%
    07:00 +17°C° 0 mm 2 mps 664 mmHg 93%
    08:00 +20°C° 0 mm 2 mps 665 mmHg 81%
    09:00 +24°C° 0 mm 2 mps 666 mmHg 70%
    10:00 +26°C° 0 mm 1 mps 666 mmHg 59%
    11:00 +27°C° 0 mm 1 mps 666 mmHg 55%
    12:00 +28°C° 0 mm 1 mps 665 mmHg 51%
    13:00 +30°C° 0 mm 1 mps 665 mmHg 46%
    14:00 +29°C° 0 mm 1 mps 664 mmHg 50%
    15:00 +29°C° 0 mm 1 mps 664 mmHg 53%
    16:00 +28°C° 0 mm 2 mps 663 mmHg 56%
    17:00 +26°C° 0 mm 1 mps 663 mmHg 64%
    18:00 +24°C° 0 mm 1 mps 663 mmHg 72%
    19:00 +22°C° 0 mm 1 mps 663 mmHg 80%
    20:00 +21°C° 0 mm 1 mps 663 mmHg 81%
    21:00 +20°C° 0 mm 1 mps 664 mmHg 82%
    22:00 +20°C° 0 mm 1 mps 664 mmHg 84%
    23:00 +19°C° 0 mm 1 mps 664 mmHg 84%
    Show more